Showing default

SEDNA-1, 60580

Orbit data source: Space-Track

SEDNA-1, 60580 is a payload satellite owned by AAC ClydeSpace (US) in SSO that was launched on Fri, 16 Aug 2024 UTC via an FALCON 9 launch vehicle from the Air Force Western Test Range (AFWTR). Payload-class satellites include a variety of spacecraft equipped with specific instruments for various scientific and technological missions. These include communications satellites like Starlink; space stations such as the ISS; scientific satellites like the Hubble; Earth observation satellites from companies like Planet Labs, Umbra, and HawkEye 360; GPS; miniature CubeSats for education and research; and military/defense satellites.

Loading next visibility...
Identifier
60580, 2024-149DS
Orbit
SSO
Country
Flag of USUS
Related business
Manufacturer
AAC ClydeSpace
Mission
Operational Commercial Communications
Bus & Motor
CUBESAT 3U, Unknown motor
Mass
4 kg wet, 4 kg dry
Launch date (UTC)
2024-08-16 (1 year ago)
Launch vehicle
FALCON 9
Launch site
Air Force Western Test Range (AFWTR)
Object type
Payload
Rocket body
Debris
Shape & HBR
Box, 0.1 m
Radar Cross Section
0.035 m², Medium (>0.1 m² and < 1m²)

Expand to show TLE details & history
Last TLE update: 12 hours ago

TLE from 12 hours ago
0 SEDNA-1
1 60580U 24149DS  26034.53163700  .00008079  00000-0  57292-3 0  9991
2 60580  97.6739 115.7374 0010608  85.0604 275.1833 15.04987009 80277
Epoch: 2026-02-03T12:45Z
TLE epoch observation values (Epoch: 2026-02-03T12:45:33.436Z)
Latitude
-0.00005°
Longitude
150.63686°
Altitude
553.951 km
Speed
7.585 km/s
True Right ascension
07h 42m 56s
True Declination
0° 00' 00"
Sunlit
Object was in full shadow at epoch
Visualization orbit readout
Latitude
Unknown
Longitude
Unknown
Altitude
Unknown
Speed
Unknown
Apparent Right ascension
Unknown
Apparent Declination
Unknown
Sunlit
N/A
Visualization observer readout
Local Sidereal Time
02:53:04
Azimuth
Unknown
Elevation
Unknown
Doppler factor
Unknown
Orbital elements
Apogee altitude
555.891 km
Perigee altitude
541.195 km
Semi-major axis
6,926.68 km
Eccentricity
0.00106
Inclination
97.6739°
RAAN
115.7374°
Arg. of periapsis
85.0604°
True anomaly
275.06222°
Mean anomaly
275.1833°
Eccentric anomaly
275.12276°
Mean motion
3.76492 °/min
Orbital period
95.62 mins
BSTAR
0.00057292
Loading maneuver chart data...
Computing Atmospheric mass density...
Loading historical data...
Loading historical data...
Loading historical data...
Loading historical data...
Loading historical data...
Loading historical data...
Loading historical data...

Documentation

Showing up to 5 results
|